FW0274 Weather Reports


Display with metric or nautical units.
time (UTC)temp
F
wind
direction
speed
MPH
gust
MPH
rain 1hr
in
rain 24hr
in
rain mn
in
humidity
%
barometer
mb
20260508124511 49 170 0.0 1.0 0.00 0.00 0.00 72 1014.2
20260508123004 48 199 0.0 6.0 0.00 0.00 0.00 72 1014.1
20260508121503 48 198 0.0 4.0 0.00 0.00 0.00 72 1014.2
20260508120002 48 209 0.0 3.0 0.00 0.00 0.00 72 1014.2
20260508114503 47 257 0.0 0.0 0.00 0.00 0.00 74 1014.1
20260508113001 46 200 0.0 0.0 0.00 0.00 0.00 75 1014.0
20260508111501 45 204 0.0 0.0 0.00 0.00 0.00 75 1013.9
20260508110100 45 185 0.0 0.0 0.00 0.00 0.00 75 1013.9
20260508104606 45 180 0.0 0.0 0.00 0.00 0.00 75 1013.7
20260508101538 44 175 0.0 0.0 0.00 0.00 0.00 75 1013.4
20260508100037 45 181 0.0 0.0 0.00 0.00 0.00 75 1013.3
20260508094553 44 209 0.0 0.0 0.00 0.00 0.00 77 1013.5
20260508093036 44 218 0.0 0.0 0.00 0.00 0.00 77 1013.6
20260508091540 44 218 0.0 0.0 0.00 0.00 0.00 77 1013.7
20260508090032 45 219 0.0 0.0 0.00 0.00 0.00 76 1013.6
20260508084531 45 263 0.0 0.0 0.00 0.00 0.00 76 1013.6
20260508083030 45 263 0.0 0.0 0.00 0.00 0.00 77 1013.4
20260508081555 45 263 0.0 0.0 0.00 0.00 0.00 77 1013.5
20260508080026 46 263 0.0 0.0 0.00 0.00 0.00 76 1013.6
20260508074525 46 263 0.0 0.0 0.00 0.00 0.00 76 1013.7
20260508073023 47 263 0.0 0.0 0.00 0.00 0.00 76 1013.7
20260508071536 47 263 0.0 0.0 0.00 0.00 0.00 76 1014.0
20260508070021 47 263 0.0 0.0 0.00 0.00 0.00 75 1014.0
20260508064520 48 263 0.0 0.0 0.00 0.00 0.00 74 1014.2
20260508063031 48 263 0.0 0.0 0.00 0.00 0.00 71 1014.7
20260508061519 48 331 0.0 0.0 0.00 0.00 0.00 70 1014.9
20260508060016 48 292 0.0 0.0 0.00 0.00 0.00 68 1014.7
20260508054515 48 183 0.0 0.0 0.00 0.00 0.00 69 1014.0
20260508053012 47 227 0.0 0.0 0.00 0.00 0.00 71 1014.3
20260508051509 46 227 0.0 0.0 0.00 0.00 0.00 74 1014.2
20260508050008 46 288 0.0 0.0 0.00 0.00 0.00 75 1014.2
20260508044507 46 288 0.0 0.0 0.00 0.00 0.00 76 1014.3
20260508043009 46 288 0.0 0.0 0.00 0.00 0.00 76 1014.5
20260508041504 46 288 0.0 0.0 0.00 0.00 0.00 74 1014.3
20260508040104 46 288 0.0 0.0 0.00 0.00 0.00 74 1014.4
20260508034600 45 288 0.0 0.0 0.00 0.00 0.00 75 1014.3
20260508033100 45 288 0.0 0.0 0.00 0.00 0.00 76 1014.5
20260508031559 45 288 0.0 0.0 0.00 0.00 0.00 73 1014.3
20260508030103 44 288 0.0 0.0 0.00 0.00 0.00 75 1014.4
20260508024557 45 288 0.0 0.0 0.00 0.00 0.00 76 1014.4
20260508023059 45 288 0.0 0.0 0.00 0.00 0.00 73 1014.3
20260508021557 46 288 0.0 0.0 0.00 0.00 0.00 75 1014.5
20260508014557 46 288 0.0 0.0 0.00 0.00 0.00 73 1014.4
20260508013054 47 288 0.0 0.0 0.00 0.00 0.00 68 1014.3
20260508011553 48 288 0.0 0.0 0.00 0.00 0.00 64 1014.1
20260508010052 50 288 0.0 0.0 0.00 0.00 0.00 62 1014.1
20260508004555 51 288 0.0 0.0 0.00 0.00 0.00 58 1014.1
20260508003051 52 288 0.0 0.0 0.00 0.00 0.00 56 1013.9
20260508001550 54 288 0.0 0.0 0.00 0.00 0.00 51 1013.8
20260508000051 55 288 0.0 0.0 0.00 0.00 0.00 46 1013.7
20260507234550 56 287 0.0 0.0 0.00 0.00 0.00 45 1013.6
20260507233049 56 294 0.0 3.0 0.00 0.00 0.00 43 1013.6
20260507231553 56 294 0.0 3.0 0.00 0.00 0.00 45 1013.5
20260507230051 56 294 0.0 8.0 0.00 0.00 0.00 42 1013.5
20260507224550 57 300 0.0 1.0 0.00 0.00 0.00 43 1013.7
20260507223047 57 9 0.0 4.0 0.00 0.00 0.00 43 1013.8
20260507221545 57 300 0.0 5.0 0.00 0.00 0.00 43 1013.8
20260507220045 57 321 0.0 4.0 0.00 0.00 0.00 41 1013.9
20260507214600 57 301 0.0 9.0 0.00 0.00 0.00 40 1013.6
20260507213045 56 287 0.0 8.0 0.00 0.00 0.00 46 1013.5
20260507211543 56 310 2.0 10.0 0.00 0.00 0.00 41 1013.5
20260507210040 57 294 0.0 8.0 0.00 0.00 0.00 45 1013.3
20260507204539 56 309 2.0 8.0 0.00 0.00 0.00 46 1013.4
20260507203047 55 301 2.0 6.0 0.00 0.00 0.00 47 1013.3
20260507201536 56 259 0.0 5.0 0.00 0.00 0.00 46 1013.4
20260507200043 55 313 0.0 5.0 0.00 0.00 0.00 48 1013.5
20260507194534 56 300 0.0 5.0 0.00 0.00 0.00 49 1013.4
20260507193033 56 279 2.0 9.0 0.00 0.00 0.00 44 1013.5
20260507191530 56 311 1.0 6.0 0.00 0.00 0.00 51 1013.4
20260507190030 55 250 3.0 8.0 0.00 0.00 0.00 49 1013.7
20260507184528 56 273 0.0 7.0 0.00 0.00 0.00 49 1013.6
20260507183030 56 248 1.0 10.0 0.00 0.00 0.00 49 1013.7
20260507181530 55 298 0.0 8.0 0.00 0.00 0.00 53 1013.4
20260507180124 55 299 1.0 8.0 0.00 0.00 0.00 53 1013.6
20260507174522 54 315 2.0 6.0 0.00 0.00 0.00 50 1013.8
20260507173030 54 290 0.0 10.0 0.00 0.00 0.00 50 1014.0
20260507171520 54 234 2.0 6.0 0.00 0.00 0.00 48 1014.2
20260507170018 54 275 1.0 8.0 0.00 0.00 0.00 48 1014.4
20260507164519 54 300 2.0 9.0 0.00 0.00 0.00 47 1014.2
20260507163016 53 196 0.0 9.0 0.00 0.00 0.00 49 1014.4
20260507161519 53 231 2.0 13.0 0.00 0.00 0.00 47 1014.3
20260507160017 53 227 0.0 8.0 0.00 0.00 0.00 53 1014.3
20260507154513 53 234 0.0 2.0 0.00 0.00 0.00 53 1014.2
20260507153010 52 317 0.0 12.0 0.00 0.00 0.00 51 1014.1
20260507151509 52 272 0.0 5.0 0.00 0.00 0.00 54 1014.1
20260507150019 51 331 0.0 7.0 0.00 0.00 0.00 57 1014.2
20260507144518 51 273 0.0 4.0 0.00 0.00 0.00 56 1014.3
20260507143005 51 283 0.0 2.0 0.00 0.00 0.00 58 1014.4
20260507141502 50 319 0.0 2.0 0.00 0.00 0.00 60 1014.5
20260507140001 50 317 0.0 6.0 0.00 0.00 0.00 60 1014.4
20260507134605 49 239 0.0 0.0 0.00 0.00 0.00 64 1014.7
20260507133125 48 274 0.0 7.0 0.00 0.00 0.00 66 1014.9
20260507131555 48 321 1.0 4.0 0.00 0.00 0.00 65 1014.8
20260507130105 47 265 0.0 7.0 0.00 0.00 0.00 70 1014.7